Starlink 33679

operational
NORAD ID: 63460 Int'l Des: 2025-070 Owner: SPXS Country: US Constellation: starlink
LEOCIRCULAR

Starlink 33679について

説明を読み込み中...

リアルタイム位置

3D地球を読み込み中...

次回通過

高度履歴

Altitude vs Time

uPlot chart will show altitude changes over time

軌道要素

1 63460U 25070A 25261.07244804 .00033560 00000-0 12225-2 0 9999
2 63460 43.0002 154.9633 0001599 282.9717 77.0956 15.27606635 26576
Epoch: Sep 18, 2025 • Age: 13 hours

現在のステータス

高度 483.7 km
速度 7.63 km/s
衛星直下点 28.33°N, 27.95°W
打ち上げ日 Apr 6, 2025
運用期間 0.4 years
タイプ internet

技術仕様

分類 Payload
質量 575.00 kg
乾燥質量 530.00 kg
総質量 575.00 kg
長さ 0.30 m
直径 4.10 m
スパン 29.00 m
形状 Box + pan
製造者 SPXS
バスタイプ Starlink V2MO
フェーズステータス In Orbit
所有者/国 SPXS/US

大規模コンステレーション

Loading constellations...